| time (UTC) | temp C | wind direction | speed KPH | gust KPH | rain 1hr cm | rain 24hr cm | rain mn cm | humidity % | barometer mb |
| 20260506100055 | 15 | 224 | 4.8 | 14.5 | 0.00 | 0.00 | 0.00 | 80 | 1009.4 |
| 20260506094555 | 15 | 215 | 6.4 | 11.3 | 0.00 | 0.00 | 0.00 | 80 | 1009.2 |
| 20260506093057 | 15 | 208 | 3.2 | 20.9 | 0.00 | 0.00 | 0.00 | 80 | 1009.4 |
| 20260506091551 | 15 | 188 | 4.8 | 19.3 | 0.00 | 0.00 | 0.00 | 79 | 1009.2 |
| 20260506090049 | 15 | 204 | 1.6 | 16.1 | 0.00 | 0.00 | 0.00 | 79 | 1009.2 |
| 20260506084547 | 15 | 217 | 4.8 | 12.9 | 0.00 | 0.00 | 0.00 | 79 | 1009.4 |
| 20260506083100 | 15 | 238 | 4.8 | 14.5 | 0.00 | 0.00 | 0.00 | 79 | 1009.4 |
| 20260506081548 | 15 | 259 | 4.8 | 19.3 | 0.00 | 0.00 | 0.00 | 78 | 1009.4 |
| 20260506073038 | 16 | 191 | 4.8 | 19.3 | 0.00 | 0.00 | 0.00 | 76 | 1009.4 |
| 20260506071536 | 16 | 183 | 3.2 | 17.7 | 0.00 | 0.00 | 0.00 | 76 | 1009.3 |
| 20260506061535 | 17 | 229 | 3.2 | 20.9 | 0.00 | 0.00 | 0.00 | 72 | 1009.0 |
| 20260506044518 | 17 | 205 | 4.8 | 24.1 | 0.00 | 0.00 | 0.00 | 67 | 1009.5 |
| 20260506043014 | 17 | 199 | 6.4 | 16.1 | 0.00 | 0.00 | 0.00 | 67 | 1009.4 |
| 20260506041510 | 17 | 222 | 11.3 | 30.6 | 0.00 | 0.00 | 0.00 | 66 | 1009.4 |
| 20260506040008 | 17 | 188 | 3.2 | 32.2 | 0.00 | 0.00 | 0.00 | 66 | 1009.5 |
| 20260506034508 | 17 | 198 | 8.0 | 24.1 | 0.00 | 0.00 | 0.00 | 66 | 1009.3 |
| 20260506033014 | 17 | 191 | 4.8 | 24.1 | 0.00 | 0.00 | 0.00 | 65 | 1009.3 |
| 20260506031506 | 17 | 206 | 8.0 | 17.7 | 0.00 | 0.00 | 0.00 | 66 | 1009.2 |
| 20260506030005 | 17 | 220 | 3.2 | 14.5 | 0.00 | 0.00 | 0.00 | 65 | 1009.3 |
| 20260506024515 | 17 | 244 | 4.8 | 19.3 | 0.00 | 0.00 | 0.00 | 65 | 1009.3 |
| 20260506023004 | 17 | 197 | 4.8 | 20.9 | 0.00 | 0.00 | 0.00 | 65 | 1009.3 |
| 20260506021509 | 17 | 206 | 8.0 | 19.3 | 0.00 | 0.00 | 0.00 | 64 | 1009.1 |
| 20260506020004 | 17 | 189 | 8.0 | 20.9 | 0.00 | 0.00 | 0.00 | 63 | 1009.1 |
| 20260506014505 | 17 | 257 | 8.0 | 20.9 | 0.00 | 0.00 | 0.00 | 62 | 1009.2 |
| 20260506013001 | 18 | 198 | 6.4 | 27.4 | 0.00 | 0.00 | 0.00 | 61 | 1009.0 |
| 20260506011501 | 18 | 234 | 4.8 | 20.9 | 0.00 | 0.00 | 0.00 | 60 | 1008.8 |
| 20260506010100 | 18 | 205 | 9.7 | 24.1 | 0.00 | 0.00 | 0.00 | 59 | 1008.6 |
| 20260506004606 | 18 | 202 | 4.8 | 20.9 | 0.00 | 0.00 | 0.00 | 60 | 1008.6 |
| 20260506003058 | 18 | 212 | 12.9 | 25.7 | 0.00 | 0.00 | 0.00 | 59 | 1008.3 |
| 20260506001603 | 19 | 219 | 4.8 | 19.3 | 0.00 | 0.00 | 0.00 | 58 | 1008.1 |
| 20260506000120 | 19 | 238 | 8.0 | 24.1 | 0.00 | 0.00 | 0.00 | 57 | 1007.8 |
| 20260505234558 | 20 | 181 | 3.2 | 20.9 | 0.00 | 0.00 | 0.00 | 57 | 1007.5 |
| 20260505233059 | 20 | 201 | 6.4 | 19.3 | 0.00 | 0.00 | 0.00 | 57 | 1007.4 |
| 20260505231612 | 20 | 193 | 8.0 | 22.5 | 0.00 | 0.00 | 0.00 | 56 | 1007.2 |
| 20260505230107 | 21 | 259 | 9.7 | 22.5 | 0.00 | 0.00 | 0.00 | 54 | 1007.0 |
| 20260505224557 | 21 | 234 | 9.7 | 27.4 | 0.00 | 0.00 | 0.00 | 52 | 1006.8 |
| 20260505223053 | 22 | 198 | 6.4 | 27.4 | 0.00 | 0.00 | 0.00 | 50 | 1006.3 |
| 20260505221559 | 22 | 200 | 4.8 | 24.1 | 0.00 | 0.00 | 0.00 | 49 | 1006.2 |
| 20260505220052 | 22 | 253 | 6.4 | 22.5 | 0.00 | 0.00 | 0.00 | 50 | 1006.4 |
| 20260505214552 | 22 | 208 | 11.3 | 32.2 | 0.00 | 0.00 | 0.00 | 50 | 1006.3 |
| 20260505213052 | 23 | 217 | 6.4 | 22.5 | 0.00 | 0.00 | 0.00 | 49 | 1006.2 |
| 20260505211549 | 23 | 209 | 4.8 | 20.9 | 0.00 | 0.00 | 0.00 | 49 | 1006.1 |
| 20260505210048 | 24 | 206 | 8.0 | 20.9 | 0.00 | 0.00 | 0.00 | 47 | 1006.0 |
| 20260505204552 | 24 | 218 | 12.9 | 32.2 | 0.00 | 0.00 | 0.00 | 48 | 1005.9 |
| 20260505203055 | 25 | 228 | 12.9 | 27.4 | 0.00 | 0.00 | 0.00 | 46 | 1005.9 |
| 20260505201547 | 24 | 271 | 4.8 | 24.1 | 0.00 | 0.00 | 0.00 | 48 | 1005.9 |
| 20260505200046 | 25 | 217 | 9.7 | 25.7 | 0.00 | 0.00 | 0.00 | 48 | 1006.1 |
| 20260505194554 | 26 | 256 | 11.3 | 20.9 | 0.00 | 0.00 | 0.00 | 44 | 1006.1 |
| 20260505193040 | 26 | 205 | 6.4 | 30.6 | 0.00 | 0.00 | 0.00 | 42 | 1006.2 |
| 20260505191552 | 27 | 261 | 9.7 | 27.4 | 0.00 | 0.00 | 0.00 | 42 | 1006.2 |
| 20260505190040 | 27 | 271 | 8.0 | 20.9 | 0.00 | 0.00 | 0.00 | 41 | 1006.3 |
| 20260505184537 | 26 | 161 | 6.4 | 22.5 | 0.00 | 0.00 | 0.00 | 43 | 1006.4 |
| 20260505183034 | 26 | 196 | 8.0 | 25.7 | 0.00 | 0.00 | 0.00 | 43 | 1006.6 |
| 20260505181534 | 26 | 226 | 6.4 | 24.1 | 0.00 | 0.00 | 0.00 | 46 | 1006.9 |
| 20260505180038 | 26 | 205 | 3.2 | 17.7 | 0.00 | 0.00 | 0.00 | 47 | 1007.1 |
| 20260505174526 | 26 | 191 | 6.4 | 24.1 | 0.00 | 0.00 | 0.00 | 46 | 1007.4 |
| 20260505173027 | 26 | 229 | 9.7 | 27.4 | 0.00 | 0.00 | 0.00 | 45 | 1007.5 |
| 20260505171524 | 26 | 207 | 6.4 | 24.1 | 0.00 | 0.00 | 0.00 | 45 | 1007.5 |
| 20260505170022 | 26 | 221 | 4.8 | 24.1 | 0.00 | 0.00 | 0.00 | 43 | 1007.6 |
| 20260505164517 | 26 | 216 | 6.4 | 22.5 | 0.00 | 0.00 | 0.00 | 44 | 1007.9 |
| 20260505163016 | 26 | 198 | 4.8 | 16.1 | 0.00 | 0.00 | 0.00 | 43 | 1008.3 |
| 20260505161512 | 25 | 179 | 8.0 | 19.3 | 0.00 | 0.00 | 0.00 | 45 | 1008.5 |
| 20260505153002 | 23 | 254 | 6.4 | 14.5 | 0.00 | 0.00 | 0.00 | 50 | 1008.9 |
| 20260505151601 | 22 | 216 | 3.2 | 9.7 | 0.00 | 0.00 | 0.00 | 51 | 1009.0 |
| 20260505151502 | 22 | 205 | 3.2 | 9.7 | 0.00 | 0.00 | 0.00 | 51 | 1009.1 |
| 20260505150126 | 23 | 211 | 4.8 | 17.7 | 0.00 | 0.00 | 0.00 | 49 | 1009.1 |
| 20260505124545 | 17 | 277 | 6.4 | 19.3 | 0.00 | 0.00 | 0.00 | 67 | 1009.8 |
| 20260505123037 | 16 | 205 | 4.8 | 20.9 | 0.00 | 0.00 | 0.00 | 69 | 1009.5 |
| 20260505121554 | 16 | 238 | 4.8 | 12.9 | 0.00 | 0.00 | 0.00 | 71 | 1009.7 |
| 20260505120025 | 15 | 203 | 4.8 | 14.5 | 0.00 | 0.00 | 0.00 | 74 | 1009.7 |
| 20260505114522 | 13 | 250 | 6.4 | 12.9 | 0.00 | 0.00 | 0.00 | 76 | 1009.6 |
| 20260505113017 | 13 | 205 | 3.2 | 14.5 | 0.00 | 0.00 | 0.00 | 78 | 1009.6 |
| 20260505111514 | 12 | 243 | 4.8 | 16.1 | 0.00 | 0.00 | 0.00 | 80 | 1009.6 |
| 20260505101508 | 9 | 204 | 0.0 | 4.8 | 0.00 | 0.00 | 0.00 | 86 | 1009.5 |